Location: *
(46.1200°N, 11.2700°E)
Time: 09:23:40
(UTC+00:00)

Cosmos 1703 Rocket - Pass Details

Date: 02 March 2021
Orbit: 604 x 634 km, 82.5° (Epoch: 18 April)

Event Time Altitude Azimuth Distance (km) Brightness Sun altitude
Rises 18:30:18 0° 354° (N) 2,915 7.2 -15.9°
Reaches altitude 10° 18:32:35 10° 358° (N) 1,998 6.3 -16.3°
Maximum altitude 18:36:57 60° 79° (ENE) 710 3.5 -17.1°
Enters shadow 18:40:21 16° 156° (SSE) 1,612 5.4 -17.7°
